Snowfall_Accumulation
0.0 0.0 0.0 0.0 0.0 0.0 0.0 0.0 0.1 0.0 0.0 0.0 0.0 0.0 0.0 0.0 0.0 0.0 0.0 0.0 0.0 0.0 0.0 0.0 0.0 0.0 0.0 0.0 0.0 0.0 0.0 0.0 0.0 0.0 0.0 0.0 0.0 0.0 0.0 0.0 0.0 0.0 0.0 0.0
0.0 0.0 0.0 0.0 0.0 0.0 0.0 0.0 0.0 0.0 0.0 0.0 0.0 0.0 0.0 0.0 0.0 0.0 0.0 0.0 0.0 0.0 0.0 0.0 0.0 0.0 0.0 0.0 0.0 0.0 0.0 0.0 0.0 0.0 0.0 0.0 0.0 0.0 0.0 0.0 0.0 0.0 0.0 0.0
0.0 0.0 0.0 0.1 0.0 0.0 0.0 0.0 0.0 0.0 0.0 0.0 0.0 0.0 0.0 0.0 0.0 0.0 0.0 0.0 0.0 0.0 0.0 0.0 0.0 0.0 0.0 0.0 0.0 0.0 0.0 0.0 0.0 0.0 0.0 0.0 0.0 0.0 0.0 0.0 0.0 0.0 0.0 0.0
0.5 0.1 1.1 0.0 0.0 0.0 0.0 0.0 0.0 0.0 0.0 0.0 0.0 0.0 0.0 0.0 0.0 0.0 0.0 0.0 0.0 0.0 0.0 0.0 0.0 0.0 0.0 0.0 0.0 0.0 0.0 0.0 0.0 0.0 0.0 0.0 0.0 0.0 0.0 0.0 0.0 0.0 0.0 0.0
1.3 0.3 0.0 0.0 0.0 0.0 0.0 0.0 0.0 0.0 0.0 0.0 0.0 0.0 0.0 0.0 0.0 0.0 0.0 0.0 0.0 0.0 0.0 0.0 0.0 0.0 0.0 0.0 0.0 0.0 0.0 0.0 0.0 0.0 0.0 0.0 0.0 0.0 0.0 0.0 0.0 0.0 0.0 0.0
0.7 0.3 1.9 0.0 0.0 0.0 0.0 0.0 0.0 0.0 0.0 0.0 0.0 0.0 0.0 0.0 0.0 0.0 0.0 0.0 0.0 0.0 0.0 0.0 0.0 0.0 0.0 0.0 0.0 0.0 0.0 0.0 0.0 0.0 0.0 0.0 0.0 0.0 0.0 0.0 0.0 0.0 0.0 0.0
0.8 0.9 0.2 0.0 0.0 0.0 0.2 0.0 0.0 0.0 0.0 0.0 0.0 0.0 0.0 0.0 0.0 0.0 0.0 0.0 0.0 0.0 0.0 0.0 0.0 0.0 0.0 0.0 0.0 0.0 0.0 0.0 0.0 0.0 0.0 0.0 0.0 0.0 0.0 0.0 0.0 0.0 0.0 0.0
0.7 0.9 1.5 0.0 0.0 0.0 0.0 0.0 0.0 0.0 0.0 0.0 0.0 0.0 0.0 0.0 0.0 0.0 0.0 0.0 0.0 0.0 0.0 0.0 0.0 0.0 0.0 0.0 0.0 0.0 0.0 0.0 0.0 0.0 0.0 0.0 0.0 0.0 0.0 0.0 0.0 0.0 0.2 0.2
0.0 0.1 0.0 0.0 0.0 0.0 0.0 0.0 0.0 0.0 0.0 0.0 0.0 0.0 0.0 0.0 0.0 0.0 0.0 0.0 0.0 0.0 0.0 0.0 0.0 0.0 0.0 0.0 0.0 0.0 0.0 0.0 0.0 0.0 0.0 0.0 0.0 0.0 0.0 0.0 0.2 0.1 0.3 0.8
0.0 0.0 0.0 0.0 0.0 0.0 0.0 0.0 0.0 0.0 0.0 0.0 0.0 0.0 0.0 0.0 0.0 0.0 0.0 0.0 0.0 0.0 0.0 0.0 0.0 0.0 0.0 0.0 0.0 0.0 0.0 0.0 0.0 0.0 0.0 0.0 0.0 0.0 0.0 0.2 0.4 0.4 1.0 1.8
0.0 0.0 0.0 0.0 0.0 0.0 0.0 0.0 0.0 0.0 0.0 0.0 0.0 0.0 0.0 0.0 0.0 0.0 0.0 0.0 0.0 0.0 0.0 0.0 0.0 0.0 0.0 0.0 0.0 0.0 0.0 0.0 0.0 0.0 0.0 0.1 0.2 0.4 0.7 1.4 0.8 2.1 2.8 3.7
1.5 0.1 0.0 0.0 0.0 0.0 0.0 0.0 0.0 0.0 0.0 0.0 0.0 0.0 0.0 0.0 0.0 0.0 0.0 0.0 0.0 0.0 0.0 0.0 0.0 0.0 0.0 0.0 0.0 0.0 0.0 0.0 0.5 0.6 0.9 0.6 0.9 1.3 nan nan nan nan nan 3.5
0.1 0.0 0.0 0.0 0.0 0.0 0.0 0.0 0.0 0.0 0.0 0.0 0.0 0.0 0.0 0.0 0.0 nan 0.0 0.0 0.0 0.0 0.0 0.0 0.0 0.0 0.0 0.0 0.0 0.1 0.2 0.6 0.7 0.6 1.2 2.0 2.8 2.9 3.7 4.0 nan nan nan nan
0.0 0.0 0.0 0.0 0.0 0.0 0.0 0.0 0.0 0.0 0.0 0.0 0.0 0.0 0.0 0.0 0.0 0.0 0.0 0.0 0.0 0.0 0.0 0.0 0.2 1.1 0.9 0.3 0.3 1.0 2.6 1.4 4.9 5.6 5.5 6.3 5.6 5.2 6.5 7.2 9.1 9.9 nan nan
0.0 0.0 0.0 0.0 0.0 0.0 0.0 0.0 0.0 0.0 0.0 0.0 0.0 0.0 0.0 0.0 0.1 0.1 0.0 0.0 0.0 0.1 0.2 0.4 0.8 1.8 1.8 2.0 2.1 2.8 3.9 5.6 5.6 5.6 6.3 6.5 6.6 7.1 7.1 7.1 7.4 7.3 6.1 3.8
0.0 0.0 0.0 0.0 0.0 0.0 0.0 0.0 0.0 0.0 0.0 0.1 0.1 0.1 0.1 0.1 0.2 0.3 0.3 0.3 0.5 1.0 0.7 3.6 1.0 1.5 0.8 0.6 0.8 1.5 2.6 2.1 3.1 5.0 6.1 6.3 6.4 6.7 6.5 6.8 7.0 7.5 6.9 6.8
0.0 0.0 0.0 0.1 0.1 0.1 0.2 0.2 0.2 0.2 0.2 0.2 0.4 0.2 0.2 0.3 0.5 0.7 1.0 1.0 2.0 2.7 1.9 1.5 3.4 2.8 2.8 3.5 3.7 5.6 5.9 6.2 2.2 6.0 6.3 6.1 6.4 6.4 5.7 6.3 6.7 6.6 9.8 13.5
0.0 0.0 0.0 0.1 0.1 0.2 0.2 0.2 0.2 0.3 0.7 1.0 1.3 3.0 4.3 4.0 2.2 2.7 3.4 3.2 3.6 4.2 4.4 5.9 5.9 5.9 5.8 5.8 5.8 6.3 6.0 6.2 6.0 6.3 5.6 6.6 5.7 4.7 6.1 6.2 6.2 6.4 7.3 6.2
0.0 0.1 0.1 0.2 0.4 0.2 0.3 0.6 0.6 0.8 2.8 2.8 4.9 5.7 6.2 6.8 4.5 5.9 6.3 10.5 13.6 8.9 13.4 8.6 2.4 4.7 6.2 5.9 3.2 5.1 5.2 5.9 4.5 3.8 3.9 6.5 8.0 5.1 6.5 7.7 6.6 8.1 5.4 6.5
0.1 0.1 0.1 0.2 0.2 0.2 0.6 0.9 1.4 2.1 3.0 3.1 7.9 10.5 10.2 14.3 13.5 14.0 9.8 10.5 10.4 12.9 9.5 7.7 5.0 4.3 4.4 2.5 2.5 2.7 3.9 6.3 4.0 6.4 8.1 4.4 10.0 14.0 9.3 7.0 6.4 9.7 15.9 12.5
1.7 2.1 2.4 2.5 4.3 3.9 6.3 8.1 6.5 7.2 10.8 13.7 13.3 16.1 15.7 13.4 12.9 14.5 11.0 6.9 9.2 6.1 3.9 1.5 2.9 3.2 2.1 1.7 1.5 4.2 6.7 9.3 9.3 5.8 5.9 12.3 16.9 12.9 15.1 15.7 14.1 16.8 19.6 15.3
3.6 4.2 6.8 6.4 5.3 6.6 7.5 7.4 6.0 8.6 9.2 12.3 17.2 18.9 13.4 9.1 9.7 8.7 9.9 5.3 6.0 3.0 3.3 3.1 2.4 3.6 2.7 5.1 2.1 7.4 3.9 4.7 6.7 6.9 7.1 11.4 13.8 20.4 20.7 17.8 17.7 19.3 18.8 19.1
4.4 4.4 4.7 5.8 5.8 6.6 5.5 5.7 9.9 8.3 12.0 11.3 13.3 10.5 7.9 6.5 5.9 6.3 6.2 3.3 2.8 4.4 2.2 3.9 4.8 5.5 5.9 8.9 8.3 10.0 9.9 10.4 10.7 10.2 10.4 16.0 15.7 25.9 15.2 15.0 16.6 17.3 22.6 15.4
4.5 4.2 4.8 4.8 4.0 2.4 3.0 6.2 3.9 4.4 9.3 5.9 7.0 9.1 3.5 6.8 9.3 2.5 2.5 5.9 6.0 15.2 11.6 6.4 8.4 6.1 6.7 11.5 12.1 14.2 13.4 14.8 15.6 17.7 9.0 8.9 23.5 18.6 15.1 22.4 14.1 17.2 18.5 15.7
4.5 4.4 4.2 5.0 3.3 5.2 3.1 3.3 2.6 2.3 1.4 1.5 1.5 1.2 1.0 1.8 7.3 4.0 5.7 5.6 6.6 5.3 7.7 6.4 6.3 7.0 14.3 15.5 15.8 16.7 17.0 15.9 17.5 20.3 14.6 20.3 18.3 26.8 24.1 19.2 23.6 23.3 22.9 19.1
3.3 4.2 4.2 3.3 3.6 2.9 2.5 1.5 2.2 2.2 1.7 5.1 3.2 10.8 7.7 4.8 4.1 4.3 6.0 6.6 4.6 6.2 5.6 13.4 18.3 18.1 16.9 12.9 15.2 15.6 12.7 9.2 14.1 14.7 17.4 16.6 16.3 13.7 18.2 16.6 22.3 26.3 31.0 32.4
3.6 1.5 2.5 2.0 1.7 1.7 1.6 1.6 3.1 4.6 5.2 9.0 8.0 7.8 5.0 8.2 10.3 6.8 8.3 12.5 12.7 13.2 13.4 16.2 14.4 10.4 8.9 14.7 12.7 11.8 11.8 12.7 10.7 10.8 21.3 24.6 23.2 30.7 27.8 27.2 30.3 31.7 28.1 24.4
Water_Equivalent
0.00 0.00 0.00 0.00 0.00 0.00 0.00 0.00 0.02 0.00 0.00 0.00 0.00 0.00 0.00 0.00 0.00 0.00 0.00 0.00 0.00 0.00 0.00 0.00 0.00 0.00 0.00 0.00 0.00 0.00 0.00 0.00 0.00 0.00 0.00 0.00 0.00 0.00 0.00 0.00 0.00 0.00 0.00 0.00
0.00 0.00 0.00 0.00 0.00 0.00 0.00 0.00 0.00 0.00 0.00 0.00 0.00 0.00 0.00 0.00 0.00 0.00 0.00 0.00 0.00 0.00 0.00 0.00 0.00 0.00 0.00 0.00 0.00 0.00 0.00 0.00 0.00 0.00 0.00 0.00 0.00 0.00 0.00 0.00 0.00 0.00 0.00 0.00
0.00 0.00 0.00 0.04 0.00 0.00 0.00 0.00 0.00 0.00 0.00 0.00 0.00 0.00 0.00 0.00 0.00 0.00 0.00 0.00 0.00 0.00 0.00 0.00 0.00 0.00 0.00 0.00 0.00 0.00 0.00 0.00 0.00 0.00 0.00 0.00 0.00 0.00 0.00 0.00 0.00 0.00 0.00 0.00
0.14 0.03 0.24 0.00 0.00 0.00 0.00 0.00 0.00 0.00 0.00 0.00 0.00 0.00 0.00 0.00 0.00 0.00 0.00 0.00 0.00 0.00 0.00 0.00 0.00 0.00 0.00 0.00 0.00 0.00 0.00 0.00 0.00 0.00 0.00 0.00 0.00 0.00 0.00 0.00 0.00 0.00 0.00 0.00
0.35 0.07 0.00 0.00 0.00 0.00 0.00 0.00 0.00 0.00 0.00 0.00 0.00 0.00 0.00 0.00 0.00 0.00 0.00 0.00 0.00 0.00 0.00 0.00 0.00 0.00 0.00 0.00 0.00 0.00 0.00 0.00 0.00 0.00 0.00 0.00 0.00 0.00 0.00 0.00 0.00 0.00 0.00 0.00
0.19 0.06 0.46 0.00 0.00 0.00 0.00 0.00 0.00 0.00 0.00 0.00 0.00 0.00 0.00 0.00 0.00 0.00 0.00 0.00 0.00 0.00 0.00 0.00 0.00 0.00 0.00 0.00 0.00 0.00 0.00 0.00 0.00 0.00 0.00 0.00 0.00 0.00 0.00 0.00 0.00 0.00 0.00 0.00
0.23 0.22 0.07 0.00 0.00 0.00 0.06 0.00 0.00 0.00 0.00 0.00 0.00 0.00 0.00 0.00 0.00 0.00 0.00 0.00 0.00 0.00 0.00 0.00 0.00 0.00 0.00 0.00 0.00 0.00 0.00 0.00 0.00 0.00 0.00 0.00 0.00 0.00 0.00 0.00 0.00 0.00 0.00 0.00
0.21 0.25 0.35 0.00 0.00 0.00 0.00 0.00 0.00 0.00 0.00 0.00 0.00 0.00 0.00 0.00 0.00 0.00 0.00 0.00 0.00 0.00 0.00 0.00 0.00 0.00 0.00 0.00 0.00 0.00 0.00 0.00 0.00 0.00 0.00 0.00 0.00 0.00 0.00 0.00 0.00 0.00 0.06 0.08
0.01 0.04 0.00 0.00 0.00 0.00 0.00 0.00 0.00 0.00 0.00 0.00 0.00 0.00 0.00 0.00 0.00 0.00 0.00 0.00 0.00 0.00 0.00 0.00 0.00 0.00 0.00 0.00 0.00 0.00 0.00 0.00 0.00 0.00 0.00 0.00 0.00 0.00 0.00 0.00 0.05 0.02 0.11 0.20
0.00 0.00 0.00 0.00 0.00 0.00 0.00 0.00 0.00 0.00 0.00 0.00 0.00 0.00 0.00 0.00 0.00 0.00 0.00 0.00 0.00 0.00 0.00 0.00 0.00 0.00 0.00 0.00 0.00 0.00 0.00 0.00 0.00 0.00 0.00 0.00 0.00 0.00 0.00 0.07 0.12 0.13 0.25 0.36
0.00 0.00 0.00 0.00 0.00 0.00 0.00 0.00 0.00 0.00 0.00 0.00 0.00 0.00 0.00 0.00 0.00 0.00 0.00 0.00 0.00 0.00 0.00 0.00 0.00 0.00 0.00 0.00 0.00 0.00 0.00 0.00 0.00 0.01 0.01 0.02 0.04 0.06 0.14 0.22 0.18 0.44 0.53 0.69
0.35 0.02 0.00 0.00 0.00 0.00 0.00 0.00 0.00 0.00 0.00 0.00 0.00 0.00 0.00 0.00 0.00 0.00 0.00 0.00 0.00 0.00 0.00 0.00 0.00 0.00 0.00 0.00 0.00 0.00 0.00 0.01 0.11 0.14 0.18 0.11 0.14 0.20 nan nan nan nan nan 0.75
0.01 0.00 0.00 0.00 0.00 0.00 0.00 0.00 0.00 0.00 0.00 0.00 0.00 0.00 0.00 0.00 0.00 nan 0.00 0.00 0.00 0.00 0.00 0.00 0.00 0.00 0.00 0.00 0.00 0.02 0.04 0.10 0.16 0.14 0.23 0.34 0.46 0.56 0.72 0.80 nan nan nan nan
0.00 0.00 0.00 0.00 0.00 0.00 0.00 0.00 0.00 0.00 0.00 0.00 0.00 0.00 0.00 0.00 0.00 0.00 0.00 0.00 0.00 0.00 0.00 0.00 0.03 0.18 0.17 0.06 0.07 0.19 0.50 0.45 0.95 1.05 1.03 1.17 1.04 0.93 1.17 1.15 1.43 1.55 nan nan
0.00 0.00 0.00 0.00 0.00 0.00 0.00 0.00 0.00 0.00 0.00 0.01 0.01 0.01 0.00 0.00 0.01 0.01 0.01 0.00 0.00 0.01 0.03 0.07 0.12 0.27 0.31 0.37 0.36 0.46 0.64 0.90 0.97 1.06 1.17 1.14 1.09 1.09 1.04 1.03 1.05 1.00 0.85 0.69
0.00 0.00 0.00 0.00 0.00 0.00 0.00 0.00 0.00 0.01 0.01 0.01 0.02 0.02 0.01 0.01 0.02 0.03 0.03 0.03 0.06 0.12 0.09 0.65 0.15 0.20 0.13 0.09 0.12 0.23 0.43 0.62 0.63 0.83 1.00 0.99 0.98 1.01 0.94 0.98 0.97 1.03 0.93 0.89
0.00 0.00 0.00 0.02 0.02 0.02 0.03 0.04 0.04 0.04 0.03 0.03 0.05 0.03 0.03 0.04 0.05 0.07 0.10 0.11 0.31 0.43 0.28 0.19 0.39 0.34 0.37 0.46 0.51 0.78 0.82 0.80 0.71 0.81 0.87 0.85 0.92 0.92 0.81 0.90 0.94 0.88 1.34 1.99
0.00 0.00 0.00 0.01 0.02 0.03 0.03 0.03 0.03 0.04 0.08 0.12 0.16 0.50 0.74 0.66 0.23 0.29 0.39 0.38 0.51 0.58 0.48 0.65 0.68 0.70 0.69 0.70 0.68 0.76 0.76 0.79 0.82 0.88 0.78 1.00 0.81 0.68 0.89 0.88 0.88 0.90 1.02 0.93
0.01 0.02 0.02 0.03 0.06 0.04 0.05 0.08 0.08 0.10 0.47 0.40 0.83 0.80 0.85 0.96 0.48 0.60 0.67 1.40 1.75 0.88 1.26 0.90 0.78 0.72 0.64 0.70 0.53 0.65 0.74 0.98 0.68 0.52 0.58 1.97 1.31 0.77 0.95 1.19 0.99 1.28 0.80 0.91
0.02 0.02 0.02 0.03 0.03 0.03 0.08 0.11 0.21 0.25 0.34 0.37 1.15 1.50 1.19 1.78 1.69 1.79 1.15 1.08 0.97 1.26 0.93 0.76 0.50 0.41 0.43 0.32 0.63 0.37 0.65 1.16 0.68 1.21 1.48 0.72 1.59 2.25 1.46 2.17 1.01 1.54 2.63 1.96
0.25 0.31 0.34 0.36 0.60 0.58 0.98 1.24 0.94 0.89 1.28 1.83 1.86 2.16 1.97 1.57 1.66 2.02 1.36 0.72 0.80 0.61 0.41 0.37 0.32 0.36 0.23 0.21 0.23 0.81 1.37 1.90 1.87 1.13 1.10 2.24 2.94 2.07 2.40 2.69 2.40 2.91 3.29 2.51
0.49 0.58 0.99 0.89 0.72 0.83 0.97 0.94 0.74 1.13 1.16 1.64 2.34 2.58 1.90 0.97 1.22 1.11 1.36 0.59 0.60 0.99 0.44 0.43 0.31 1.10 0.75 1.65 0.41 1.60 0.81 0.96 1.32 1.32 1.38 2.19 2.39 3.27 3.30 2.88 2.77 3.23 3.23 3.32
0.54 0.53 0.57 0.73 0.72 0.70 0.62 0.65 1.38 1.18 1.69 1.55 1.85 1.36 1.01 0.74 0.70 0.85 0.79 0.29 0.37 1.24 0.35 0.75 1.52 1.82 1.93 2.06 1.88 2.15 2.07 2.06 2.07 1.88 1.95 2.92 2.74 4.20 2.22 2.18 2.55 2.63 3.70 2.44
0.53 0.50 0.56 0.57 0.47 0.25 0.33 0.60 0.38 0.44 1.32 0.78 1.01 1.40 0.53 1.19 1.74 0.37 0.38 1.96 1.94 3.83 2.77 1.54 2.23 2.00 2.22 2.54 2.43 2.75 2.55 2.74 2.69 2.92 1.47 2.76 4.04 2.85 2.22 3.24 1.94 2.58 2.77 2.41
0.50 0.49 0.48 0.57 0.34 0.56 0.30 0.32 0.25 0.23 0.15 0.18 0.17 0.14 0.15 0.34 1.40 0.75 1.24 1.22 2.08 1.35 1.67 2.02 2.09 2.30 3.09 3.22 2.97 2.91 2.86 2.44 2.72 3.12 2.17 3.29 2.96 4.25 3.66 2.72 3.12 3.34 3.26 2.86
0.33 0.45 0.44 0.32 0.38 0.33 0.30 0.21 0.32 0.34 0.31 0.95 0.57 2.11 1.54 0.93 0.81 0.83 1.20 1.79 0.93 1.90 1.13 2.81 3.62 3.55 3.29 2.29 2.61 2.64 1.99 1.41 2.06 2.03 2.34 2.31 2.29 1.86 2.27 2.08 2.87 3.67 4.57 5.01
0.39 0.29 0.30 0.24 0.20 0.24 0.23 0.25 0.56 0.74 1.11 1.65 1.40 1.43 0.89 1.52 1.96 1.57 2.36 2.42 2.42 2.60 2.64 3.26 2.82 2.67 1.61 2.67 2.20 1.88 1.75 1.87 2.76 1.46 2.67 3.12 2.93 4.06 3.58 3.64 4.20 4.66 3.90 3.30
SL_Ratio
nan nan nan 5.5 nan nan 3.3 nan 4.7 nan nan nan nan nan nan nan nan nan nan nan nan nan nan nan nan nan nan nan nan nan nan nan nan nan nan nan nan nan nan nan nan nan nan nan
nan nan nan nan nan nan nan nan nan nan nan nan nan nan nan nan nan nan nan nan nan nan nan nan nan nan nan nan nan nan nan nan nan nan nan nan nan nan nan nan nan nan nan nan
4.0 nan nan 3.4 nan nan nan nan nan nan nan nan nan nan nan nan nan nan nan nan nan nan nan nan nan nan nan nan nan nan nan nan nan nan nan nan nan nan nan nan nan nan nan nan
3.4 3.1 4.5 4.2 nan nan nan nan nan nan nan nan nan nan nan nan nan nan nan nan nan nan nan nan nan nan nan nan nan nan nan nan nan nan nan nan nan nan nan nan nan nan nan nan
3.7 3.8 nan nan nan nan nan nan nan nan nan nan nan nan nan nan nan nan nan nan nan nan nan nan nan nan nan nan nan nan nan nan nan nan nan nan nan nan nan nan nan nan nan nan
3.8 5.1 4.1 nan nan nan nan 3.3 nan nan nan nan nan nan nan nan nan nan nan nan nan nan nan nan nan nan nan nan nan nan nan nan nan nan nan nan nan nan nan nan nan nan nan nan
3.6 4.0 3.3 nan nan nan 3.0 3.1 nan nan nan nan nan nan nan nan nan nan nan nan nan nan nan nan nan nan nan nan nan nan nan nan nan nan nan nan nan nan nan nan nan nan nan nan
3.3 3.6 4.3 nan nan 4.0 2.0 nan nan nan nan nan nan nan nan nan nan nan nan nan nan nan nan nan nan nan nan nan nan nan nan nan nan nan nan nan nan nan nan nan nan 2.5 3.2 3.2
3.2 2.9 nan nan nan nan nan nan nan nan nan nan nan nan nan nan nan nan nan nan nan nan nan nan nan nan nan nan nan nan nan nan nan nan nan nan nan nan nan nan 2.9 2.9 3.2 3.9
3.3 nan nan nan nan nan nan nan nan nan nan nan nan nan nan nan nan nan nan nan nan nan nan nan nan nan nan nan nan nan nan nan nan nan nan 6.7 5.0 10.0 6.4 3.0 3.2 3.1 3.9 5.0
nan 2.9 nan nan nan nan nan nan nan nan nan nan nan nan nan nan nan nan nan nan nan nan nan nan nan nan nan nan nan nan nan nan 5.0 4.2 5.3 5.0 5.5 6.2 5.2 6.3 4.3 4.8 5.2 5.4
4.2 4.1 4.0 6.0 nan nan nan nan nan nan nan nan nan nan nan nan nan nan nan nan nan nan nan nan nan nan nan nan nan nan 5.0 4.6 4.3 4.1 5.2 6.0 6.4 6.7 nan nan nan nan nan 4.7
6.2 5.0 nan nan nan nan nan nan nan nan nan nan nan nan nan nan nan nan nan nan 0.0 5.0 5.0 10.0 6.7 6.7 6.7 4.5 nan 5.7 5.7 5.7 4.6 4.0 5.4 6.0 6.0 5.2 5.2 5.0 nan nan nan nan
nan nan nan nan nan nan nan nan nan nan nan nan nan nan nan nan nan 10.0 9.1 8.3 10.0 8.3 8.0 8.0 5.9 6.0 5.4 5.2 5.2 5.4 5.2 3.0 5.1 5.3 5.4 5.4 5.4 5.5 5.6 6.2 6.3 6.4 nan nan
5.0 nan nan nan nan nan nan nan nan nan 3.3 2.4 2.7 4.1 nan 6.7 7.7 8.6 8.1 7.1 8.3 6.4 6.6 6.5 6.8 6.9 5.7 5.6 5.7 6.1 6.0 6.2 5.7 5.3 5.4 5.7 6.0 6.6 6.8 6.9 7.1 7.3 7.2 5.6
nan nan nan nan nan nan nan nan nan 4.8 5.8 6.2 6.5 7.0 7.2 7.3 8.7 9.4 9.4 9.4 7.2 8.0 8.1 5.6 6.4 7.4 6.5 6.3 6.6 6.2 6.1 3.4 5.0 6.0 6.1 6.3 6.5 6.6 6.9 7.0 7.2 7.2 7.4 7.6
nan 10.0 nan 5.3 5.3 6.0 6.0 5.7 6.0 6.4 6.9 7.4 7.8 7.3 7.8 8.1 9.0 9.8 10.1 9.2 6.6 6.4 6.9 7.8 8.7 8.0 7.7 7.6 7.2 7.2 7.2 7.7 3.0 7.4 7.2 7.2 6.9 7.0 7.1 7.0 7.1 7.5 7.3 6.8
nan 10.0 10.0 6.1 6.4 6.2 6.4 6.3 6.7 7.2 8.1 8.4 8.0 5.9 5.8 6.0 9.8 9.4 8.8 8.4 6.9 7.3 9.2 9.1 8.7 8.4 8.3 8.3 8.4 8.3 7.9 7.9 7.4 7.2 7.2 6.7 7.0 6.9 6.8 7.0 7.1 7.1 7.2 6.7
4.8 5.5 5.7 5.8 6.3 6.5 7.0 7.4 7.9 8.1 6.1 7.1 6.0 7.2 7.3 7.2 9.3 10.0 9.5 7.5 7.8 10.1 10.6 9.6 3.0 6.6 9.7 8.4 6.0 7.8 7.0 6.0 6.6 7.3 6.8 3.3 6.1 6.6 6.8 6.5 6.7 6.4 6.8 7.1
6.6 6.3 6.6 7.2 6.9 7.1 7.4 7.6 6.3 8.4 8.9 8.3 6.9 7.0 8.6 8.0 7.9 7.8 8.5 9.7 10.7 10.2 10.2 10.2 10.1 10.3 10.3 7.7 3.9 7.3 6.0 5.4 5.9 5.3 5.5 6.1 6.3 6.2 6.4 3.2 6.3 6.3 6.0 6.4
6.8 6.8 7.1 7.0 7.3 6.7 6.4 6.5 6.9 8.2 8.4 7.5 7.2 7.4 8.0 8.5 7.8 7.2 8.1 9.6 11.5 10.0 9.6 4.1 9.0 8.7 9.2 8.2 6.5 5.1 4.9 4.9 4.9 5.1 5.3 5.5 5.8 6.2 6.3 5.8 5.9 5.8 6.0 6.1
7.3 7.2 6.9 7.2 7.4 8.0 7.8 7.9 8.1 7.6 7.9 7.5 7.3 7.3 7.1 9.4 8.0 7.8 7.3 8.9 10.0 3.0 7.5 7.3 7.8 3.3 3.7 3.1 5.0 4.6 4.8 4.9 5.1 5.2 5.1 5.2 5.8 6.2 6.3 6.2 6.4 6.0 5.8 5.8
8.1 8.3 8.2 8.0 8.1 9.4 8.8 8.7 7.2 7.0 7.1 7.3 7.2 7.7 7.8 8.7 8.4 7.4 7.8 11.2 7.5 3.5 6.4 5.3 3.2 3.0 3.0 4.3 4.4 4.6 4.8 5.1 5.2 5.4 5.3 5.5 5.7 6.2 6.8 6.9 6.5 6.6 6.1 6.3
8.4 8.4 8.6 8.5 8.6 9.6 9.2 10.3 10.1 10.1 7.1 7.6 6.9 6.5 6.6 5.7 5.3 6.7 6.5 3.0 3.1 4.0 4.2 4.2 3.7 3.0 3.0 4.5 5.0 5.2 5.3 5.4 5.8 6.1 6.1 3.2 5.8 6.5 6.8 6.9 7.3 6.6 6.7 6.5
9.1 9.0 8.8 8.6 9.7 9.2 10.2 10.4 10.3 10.1 9.2 8.4 8.8 8.5 6.7 5.3 5.2 5.4 4.6 4.6 3.2 3.9 4.6 3.2 3.0 3.0 4.6 4.8 5.3 5.7 5.9 6.5 6.4 6.5 6.7 6.2 6.2 6.3 6.6 7.0 7.6 7.0 7.0 6.7
10.0 9.4 9.6 10.3 9.5 8.9 8.5 7.1 6.7 6.5 5.5 5.4 5.6 5.1 5.0 5.1 5.0 5.2 5.0 3.7 4.9 3.3 4.9 4.8 5.1 5.1 5.1 5.6 5.8 5.9 6.4 6.5 6.8 7.3 7.4 7.2 7.1 7.4 8.0 8.0 7.8 7.2 6.8 6.5
9.2 5.0 8.4 8.4 8.1 7.3 6.7 6.4 5.6 6.2 4.7 5.4 5.7 5.5 5.6 5.4 5.2 4.3 3.5 5.2 5.3 5.1 5.1 5.0 5.1 3.9 5.5 5.5 5.8 6.3 6.8 6.8 3.9 7.5 7.9 7.9 7.9 7.6 7.8 7.5 7.2 6.8 7.2 7.4